Powrót do katalogu

FENGYUN 1C DEB

LostSSO
NORAD 40685·DEBRIS·🇨🇳 China

Wystrzelony May 10, 1999 z Taiyuan Satellite Launch Center

Loading…

Następne Przeloty (najbliższe 24 godziny)

TLE

NieaktualneSource: Space-Track

Epoka: Mar 10, 2025, 00:11 UTC

1 40685U 99025EWR 25069.00810717  .00003429  00000-0  25871-2 0  9997
2 40685  99.3268 153.7618 0159357  34.3098 326.8231 13.89044879521073

Śledź FENGYUN 1C DEB w czasie rzeczywistym z AllMySat

Download on the App Store